Salem, IL

9:57 PM CST on December 15, 2017 (GMT -0600)
Salem-Leckrone

Weather History for KSLO - January, 2014

Change the Weather History Date:

Tuesday, January 7, 2014

  Actual Average Record
Temperature  
Mean Temperature 4 °F -  
Max Temperature 19 °F 37 °F 68 °F (2008)
Min Temperature -11 °F 19 °F -11 °F (2014)
Degree Days  
Heating Degree Days 61    
Moisture  
Dew Point -2 °F    
Average Humidity 72    
Maximum Humidity 84    
Minimum Humidity 60    
Precipitation  
Precipitation 0.00 in - - ()
Sea Level Pressure  
Sea Level Pressure 30.37 in    
Wind  
Wind Speed 7 mph (South)    
Max Wind Speed 14 mph    
Max Gust Speed 17 mph    
Visibility 10 miles    
Events      
Averages and records for this station are not official NWS values.
T = Trace of Precipitation, MM = Missing Value Source: NWS Daily Summary

Daily Weather History Graph

Daily Weather History Graph

Search for Another Location

Airport or City:

Trip Planner

Search our weather history database for the weather conditions in past years. The results will help you decide how hot, cold, wet, or windy it might be!

Date:

Astronomy

Jan. 07, 2014 Rise Set
Actual Time 7:13 AM CST 4:50 PM CST
Civil Twilight 6:44 AM CST 5:20 PM CST
Nautical Twilight 6:11 AM CST 5:53 PM CST
Astronomical Twilight 5:39 AM CST 6:25 PM CST
Moon 11:07 AM CST (1/7) No Moon Set
Length of Visible Light 10h 35m
Length of Day
9h 36m
Waxing Crescent, 46% of the Moon is Illuminated
Jan 7
Waxing Crescent
Jan 7
First Quarter
Jan 15
Full
Jan 23
Last Quarter
Jan 30
New

Hourly Weather History & Observations

Time (CST) Temp. Windchill Dew Point Humidity Pressure Visibility Wind Dir Wind Speed Gust Speed Precip Events Conditions
12:15 AM -10.3 °F -25.4 °F -16.6 °F 74% 30.47 in 10.0 mi SW 6.9 mph - N/A   Clear
12:35 AM -10.7 °F -24.2 °F -17.0 °F 74% 30.47 in 10.0 mi SW 5.8 mph - N/A   Clear
12:55 AM -10.1 °F -21.7 °F -15.7 °F 76% 30.46 in 10.0 mi SSW 4.6 mph - N/A   Clear
1:15 AM -9.9 °F -23.4 °F -15.7 °F 76% 30.47 in 10.0 mi SW 5.8 mph - N/A   Clear
1:35 AM -11.2 °F -24.8 °F -17.3 °F 74% 30.47 in 10.0 mi SW 5.8 mph - N/A   Clear
1:55 AM -8.5 °F -23.2 °F -15.2 °F 73% 30.46 in 10.0 mi SW 6.9 mph - N/A   Clear
2:15 AM -6.9 °F -22.5 °F -14.3 °F 70% 30.47 in 10.0 mi SW 8.1 mph - N/A   Clear
2:35 AM -7.8 °F -22.3 °F -15.0 °F 71% 30.46 in 10.0 mi SW 6.9 mph - N/A   Clear
2:55 AM -9.6 °F -22.9 °F -16.2 °F 73% 30.48 in 10.0 mi SSW 5.8 mph - N/A   Clear
3:15 AM -9.4 °F -22.7 °F -15.2 °F 76% 30.47 in 10.0 mi SW 5.8 mph - N/A   Clear
3:35 AM -9.0 °F -22.3 °F -15.2 °F 75% 30.46 in 10.0 mi SW 5.8 mph - N/A   Clear
3:55 AM -8.7 °F -20.0 °F -14.3 °F 77% 30.45 in 10.0 mi South 4.6 mph - N/A   Clear
4:15 AM -8.9 °F -20.2 °F -14.6 °F 76% 30.46 in 10.0 mi South 4.6 mph - N/A   Clear
4:35 AM -9.0 °F -20.4 °F -15.0 °F 75% 30.46 in 10.0 mi SSW 4.6 mph - N/A   Clear
4:55 AM -10.5 °F -24.0 °F -15.9 °F 77% 30.47 in 10.0 mi SSW 5.8 mph - N/A   Clear
5:15 AM -8.0 °F -21.0 °F -13.4 °F 77% 30.46 in 10.0 mi South 5.8 mph - N/A   Clear
5:35 AM -8.3 °F -23.0 °F -14.6 °F 74% 30.46 in 10.0 mi SSW 6.9 mph - N/A   Clear
5:55 AM -7.8 °F -20.8 °F -13.9 °F 75% 30.45 in 10.0 mi SSW 5.8 mph - N/A   Clear
6:15 AM -7.8 °F -20.8 °F -13.9 °F 75% 30.46 in 10.0 mi SSW 5.8 mph - N/A   Clear
6:35 AM -6.7 °F -15.5 °F -11.9 °F 78% 30.45 in 10.0 mi South 3.5 mph - N/A   Clear
6:55 AM -6.9 °F -15.7 °F -12.3 °F 77% 30.45 in 10.0 mi South 3.5 mph - N/A   Clear
7:15 AM -6.7 °F - -11.9 °F 78% 30.45 in 10.0 mi Calm Calm - N/A   Clear
7:35 AM -7.1 °F - -12.1 °F 79% 30.46 in 10.0 mi Calm Calm - N/A   Clear
7:55 AM -7.2 °F -20.1 °F -12.3 °F 79% 30.46 in 10.0 mi South 5.8 mph - N/A   Clear
8:15 AM -4.2 °F -16.5 °F -10.5 °F 74% 30.46 in 10.0 mi South 5.8 mph - N/A   Clear
8:35 AM -2.7 °F -14.8 °F -9.6 °F 73% 30.46 in 10.0 mi South 5.8 mph - N/A   Clear
8:55 AM -0.6 °F -13.6 °F -8.3 °F 70% 30.46 in 10.0 mi South 6.9 mph - N/A   Clear
9:15 AM 1.4 °F -13.5 °F -6.9 °F 68% 30.46 in 10.0 mi South 9.2 mph - N/A   Clear
9:35 AM 2.8 °F -10.7 °F -5.8 °F 67% 30.46 in 10.0 mi South 8.1 mph - N/A   Clear
9:55 AM 4.5 °F -8.7 °F -4.2 °F 67% 30.47 in 10.0 mi SSW 8.1 mph - N/A   Scattered Clouds
10:15 AM 6.3 °F -7.5 °F -3.1 °F 65% 30.46 in 10.0 mi South 9.2 mph - N/A   Overcast
10:35 AM 7.5 °F -5.0 °F -1.8 °F 66% 30.46 in 10.0 mi SSW 8.1 mph - N/A   Overcast
10:55 AM 8.2 °F -5.1 °F -1.1 °F 66% 30.43 in 10.0 mi South 9.2 mph - N/A   Overcast
11:15 AM 9.1 °F -4.0 °F -0.2 °F 66% 30.43 in 10.0 mi South 9.2 mph - N/A   Overcast
11:35 AM 10.4 °F -4.8 °F 0.7 °F 65% 30.41 in 10.0 mi South 12.7 mph - N/A   Overcast
11:55 AM 11.1 °F -1.6 °F 1.0 °F 64% 30.39 in 10.0 mi South 9.2 mph - N/A   Overcast
12:15 PM 12.2 °F -1.0 °F 1.4 °F 62% 30.38 in 10.0 mi South 10.4 mph - N/A   Overcast
12:35 PM 13.1 °F 0.1 °F 1.9 °F 61% 30.35 in 10.0 mi South 10.4 mph 13.8 mph N/A   Overcast
12:55 PM 13.8 °F 1.0 °F 2.7 °F 61% 30.35 in 10.0 mi South 10.4 mph 16.1 mph N/A   Overcast
1:15 PM 14.0 °F 1.2 °F 2.8 °F 61% 30.33 in 10.0 mi South 10.4 mph - N/A   Overcast
1:35 PM 14.7 °F 1.4 °F 3.2 °F 60% 30.31 in 10.0 mi SSE 11.5 mph 17.3 mph N/A   Overcast
1:55 PM 15.6 °F 3.2 °F 4.5 °F 61% 30.31 in 10.0 mi SSE 10.4 mph 17.3 mph N/A   Overcast
2:15 PM 16.0 °F 1.7 °F 5.0 °F 62% 30.30 in 10.0 mi SSE 13.8 mph 17.3 mph N/A   Overcast
2:35 PM 16.3 °F 5.7 °F 5.9 °F 64% 30.30 in 10.0 mi SSE 8.1 mph 16.1 mph N/A   Overcast
2:55 PM 17.1 °F 3.0 °F 5.9 °F 62% 30.28 in 10.0 mi South 13.8 mph 17.3 mph N/A   Overcast
3:15 PM 17.6 °F 5.0 °F 6.8 °F 63% 30.29 in 10.0 mi South 11.5 mph 16.1 mph N/A   Overcast
3:35 PM 17.8 °F 4.0 °F 7.3 °F 64% 30.28 in 10.0 mi South 13.8 mph 17.3 mph N/A   Mostly Cloudy
3:55 PM 18.5 °F 4.9 °F 7.7 °F 63% 30.27 in 10.0 mi South 13.8 mph - N/A   Clear
4:15 PM 19.0 °F 7.5 °F 8.2 °F 63% 30.26 in 10.0 mi SSE 10.4 mph - N/A   Clear
4:35 PM 19.0 °F 8.2 °F 8.4 °F 63% 30.26 in 10.0 mi South 9.2 mph - N/A   Clear
4:55 PM 18.9 °F 10.8 °F 8.6 °F 64% 30.26 in 10.0 mi SSE 5.8 mph - N/A   Clear
5:15 PM 18.5 °F 10.4 °F 8.6 °F 65% 30.28 in 10.0 mi SSE 5.8 mph - N/A   Clear
5:35 PM 18.1 °F 12.9 °F 8.6 °F 66% 30.28 in 10.0 mi SSE 3.5 mph - N/A   Clear
5:55 PM 16.7 °F 11.2 °F 8.6 °F 70% 30.28 in 10.0 mi SE 3.5 mph - N/A   Clear
6:15 PM 16.0 °F 10.4 °F 8.4 °F 72% 30.28 in 10.0 mi SE 3.5 mph - N/A   Clear
6:35 PM 15.4 °F 9.8 °F 8.4 °F 74% 30.29 in 10.0 mi SE 3.5 mph - N/A   Clear
6:55 PM 15.6 °F 8.3 °F 8.8 °F 74% 30.29 in 10.0 mi SE 4.6 mph - N/A   Clear
7:15 PM 15.3 °F 7.9 °F 8.6 °F 75% 30.30 in 10.0 mi SE 4.6 mph - N/A   Clear
7:35 PM 14.9 °F 7.5 °F 8.6 °F 76% 30.30 in 10.0 mi SE 4.6 mph - N/A   Clear
7:55 PM 14.9 °F 6.1 °F 9.1 °F 78% 30.30 in 10.0 mi SE 5.8 mph - N/A   Clear
8:15 PM 15.3 °F 7.9 °F 9.5 °F 78% 30.30 in 10.0 mi SSE 4.6 mph - N/A   Clear
8:35 PM 15.3 °F 7.9 °F 9.5 °F 78% 30.30 in 10.0 mi SE 4.6 mph - N/A   Clear
8:55 PM 14.5 °F 7.1 °F 9.3 °F 80% 30.30 in 10.0 mi SE 4.6 mph - N/A   Clear
9:15 PM 14.5 °F 5.7 °F 9.7 °F 81% 30.29 in 10.0 mi SE 5.8 mph - N/A   Clear
9:35 PM 14.7 °F 5.9 °F 10.0 °F 82% 30.28 in 10.0 mi SE 5.8 mph - N/A   Clear
9:55 PM 14.9 °F 7.5 °F 10.4 °F 82% 30.29 in 10.0 mi SSE 4.6 mph - N/A   Clear
10:15 PM 14.9 °F 9.2 °F 10.8 °F 84% 30.28 in 10.0 mi SE 3.5 mph - N/A   Clear
10:35 PM 14.5 °F 7.1 °F 10.4 °F 84% 30.28 in 10.0 mi SE 4.6 mph - N/A   Clear
10:55 PM 14.9 °F 7.5 °F 10.6 °F 83% 30.28 in 10.0 mi SSE 4.6 mph - N/A   Clear
11:15 PM 16.3 °F 9.2 °F 11.5 °F 81% 30.28 in 10.0 mi SSE 4.6 mph - N/A   Clear
11:35 PM 16.7 °F 8.3 °F 11.7 °F 81% 30.28 in 10.0 mi South 5.8 mph - N/A   Clear
11:55 PM 18.1 °F 10.0 °F 12.6 °F 79% 30.28 in 10.0 mi South 5.8 mph - N/A   Clear